Location: Unspecified
(0.0000°N, 0.0000°E)
Time: 15:57:08
(UTC+00:00)

A-11 Canister half - Pass Details

Date: 03 October 2023
Orbit: 1514 x 1686 km, 47.2° (Epoch: 05 December)

Event Time Altitude Azimuth Distance (km) Brightness Sun altitude
Rises 04:43:20 0° 270° (W) 4,685 - -16.4°
Exits shadow 04:49:41 10° 239° (WSW) 3,763 10.6 -14.8°
Reaches altitude 10° 04:49:58 10° 237° (WSW) 3,744 10.6 -14.8°
Maximum altitude 04:52:11 11° 223° (SW) 3,686 10.6 -14.2°
Drops below altitude 10° 04:54:25 10° 209° (SSW) 3,776 10.8 -13.7°
Sets 05:01:20 0° 175° (S) 4,815 11.7 -11.9°
